SCP
0 0 0 0 0 0 0 0 0 0 0 0 0 0 0 1 1 1 1 1 1 1 1 0 0 0 0 0 0 0 1 1 1 1 1 1 1 1 1 1 1 1 1 1
0 0 0 0 0 0 0 0 0 0 0 0 0 0 0 1 1 1 1 1 1 1 0 0 0 0 0 0 0 0 1 1 1 1 1 1 1 0 0 0 0 0 1 1
0 0 0 0 0 0 0 0 0 0 0 0 0 0 0 0 0 0 0 1 1 0 0 0 0 0 0 0 0 0 1 1 1 1 1 1 0 0 0 0 0 0 0 0
0 0 0 0 0 0 0 0 0 0 0 0 0 0 0 0 0 0 0 0 0 0 0 0 1 1 0 0 0 0 0 1 1 1 1 0 0 0 0 0 0 0 0 0
0 0 0 0 0 0 0 0 0 0 0 0 0 0 0 0 0 0 0 0 0 0 0 0 1 1 1 1 1 0 0 0 0 0 0 0 0 0 0 0 0 0 0 0
0 0 0 0 0 0 0 0 0 0 0 0 0 0 0 0 0 0 0 0 0 0 0 0 1 1 1 1 1 1 1 1 0 0 0 0 0 0 0 0 0 0 0 0
0 0 0 0 0 0 0 0 0 0 0 0 0 0 0 0 0 0 0 0 0 0 0 0 0 1 1 1 1 1 1 1 0 0 0 0 0 0 0 0 0 0 0 0
0 0 0 0 0 0 0 0 0 0 0 0 0 0 0 0 0 0 0 0 0 0 0 0 0 0 0 0 1 1 1 1 0 0 0 0 0 0 0 0 0 0 0 0
0 0 0 0 0 0 0 0 0 0 0 0 0 0 0 0 0 0 0 0 0 0 0 0 0 0 0 0 0 0 0 0 0 0 0 0 0 0 0 0 0 0 0 0
0 0 0 0 0 0 0 0 0 0 0 0 0 0 0 0 0 0 0 0 0 0 0 0 0 0 0 0 0 0 0 0 0 0 0 0 0 0 0 0 0 0 0 0
0 0 0 0 0 0 0 0 0 0 0 0 0 0 0 0 0 0 0 0 0 0 0 0 0 0 0 0 0 0 0 0 0 0 0 0 0 0 0 0 0 0 0 0
0 0 0 0 0 0 0 0 0 0 0 0 0 0 0 0 0 0 0 0 0 0 0 0 0 0 0 0 0 0 0 0 0 0 0 0 0 0 0 0 0 0 0 0
0 0 0 0 0 0 0 0 0 0 0 0 0 0 0 0 0 0 0 0 0 0 0 0 0 0 0 0 0 0 0 0 0 0 0 0 0 0 0 0 0 0 0 0
0 0 0 0 0 0 0 0 0 0 0 0 0 0 0 0 0 0 0 0 0 0 0 0 0 0 0 0 0 0 0 0 0 0 0 0 0 0 0 0 0 0 0 0
0 0 0 0 0 0 0 0 0 0 0 0 0 0 0 0 0 0 0 0 0 0 0 0 0 0 0 0 0 0 0 0 0 0 0 0 0 0 0 0 0 0 0 0
0 0 0 0 0 0 0 0 0 0 0 0 0 0 0 0 0 0 0 0 0 0 0 0 0 0 0 0 0 0 0 0 0 0 0 0 0 0 0 0 0 0 0 0
0 0 0 0 0 0 0 0 0 0 0 0 0 0 0 0 0 0 0 0 0 0 0 0 0 0 0 0 0 0 0 0 0 0 0 0 0 0 0 0 0 0 0 0
0 0 0 0 0 0 0 0 0 0 0 0 0 0 0 0 0 0 0 0 0 0 0 0 0 0 0 0 0 0 0 0 0 0 0 0 0 0 0 0 0 0 0 0
0 0 0 0 0 0 0 0 0 0 0 0 0 0 0 0 0 0 0 0 0 0 0 0 0 0 0 0 0 0 0 0 0 0 0 0 0 0 0 0 0 0 0 0
0 0 0 0 0 0 0 0 0 0 0 0 0 0 0 0 0 0 0 0 0 0 0 0 0 0 0 0 0 0 0 0 0 0 0 0 0 0 0 0 0 0 0 0
0 0 0 0 0 0 0 0 0 0 0 0 0 0 0 0 0 0 0 0 0 0 0 0 0 0 0 0 0 0 0 0 0 0 0 0 0 0 0 0 0 0 0 0
0 0 0 0 0 0 0 0 0 0 0 0 0 0 0 0 0 0 0 0 0 0 0 0 0 0 0 0 0 0 0 0 0 0 0 0 0 0 0 0 0 0 0 0
0 0 0 0 0 0 0 0 0 0 0 0 0 0 0 0 0 0 0 0 0 0 0 0 0 0 0 0 0 0 0 0 0 0 0 0 0 0 0 0 0 0 0 0
0 0 0 0 0 0 0 0 0 0 0 0 0 0 0 0 0 0 0 0 0 0 0 0 0 0 0 0 0 0 0 0 0 0 0 0 0 0 0 0 0 0 0 0
0 0 0 0 0 0 0 0 0 0 0 0 0 0 0 0 0 0 0 0 0 0 0 0 0 0 0 0 0 0 0 0 0 0 0 0 0 0 0 0 0 0 0 0
0 0 0 0 0 0 0 0 0 0 0 0 0 0 0 0 0 0 0 0 0 0 0 0 0 0 0 0 0 0 0 0 0 0 0 0 0 0 0 0 0 0 0 0
Wind_Speed
4 2 2 3 4 6 5 5 5 3 1 2 6 8 6 3 3 3 3 3 3 3 4 5 4 4 4 3 3 3 3 2 2 2 2 2 1 1 1 1 2 2 1 1
2 3 3 4 4 6 5 5 4 1 0 3 6 8 5 4 4 4 3 3 3 3 4 5 4 4 4 4 3 2 2 3 3 2 2 2 2 1 1 1 2 1 1 1
3 1 1 3 4 4 4 4 3 3 4 5 4 6 4 3 3 3 2 3 3 4 4 5 4 3 3 3 3 2 2 3 3 3 3 3 2 1 1 1 1 1 1 2
2 1 2 4 4 3 4 2 3 4 3 3 2 4 3 5 5 5 4 3 3 4 4 4 4 4 3 3 2 2 3 3 3 3 3 3 2 1 1 1 1 1 1 2
2 0 1 3 2 3 2 3 4 4 4 4 3 3 5 5 5 6 5 4 4 4 5 4 4 4 4 4 3 2 3 3 3 3 2 2 1 1 1 1 1 1 1 1
3 1 1 1 1 2 3 4 4 3 2 4 5 4 5 4 6 6 6 5 5 5 5 5 4 5 4 4 3 2 3 3 3 2 2 2 2 2 1 1 0 0 0 0
3 4 3 1 2 1 2 1 1 1 2 5 2 3 5 2 4 6 6 5 5 5 5 5 5 5 4 4 3 3 3 2 3 3 2 1 1 1 1 1 1 1 0 0
2 3 5 3 1 1 3 2 1 2 3 2 1 5 3 4 5 5 5 5 4 4 4 5 5 5 5 5 4 3 3 3 3 3 2 1 2 1 1 1 1 1 1 1
2 1 3 2 0 2 2 2 1 2 4 4 5 4 2 4 4 4 5 5 4 4 4 4 4 5 5 4 4 3 3 3 3 3 3 2 2 2 1 1 1 1 1 1
3 2 2 3 1 3 3 3 0 1 2 4 5 4 4 5 5 5 5 5 4 4 4 3 3 3 4 4 3 3 3 3 2 3 3 2 2 2 2 2 2 1 1 1
2 2 2 3 5 5 4 3 3 3 3 2 4 3 1 4 5 5 4 4 4 4 4 3 3 3 3 3 3 3 3 2 2 2 2 2 2 2 2 2 2 2 2 2
1 1 4 4 0 1 2 4 4 3 4 4 3 5 2 5 4 4 4 3 3 3 3 3 3 3 3 3 3 3 3 3 3 2 2 2 2 2 3 3 3 3 3 3
0 2 2 2 1 0 2 3 4 3 2 4 5 6 1 3 3 3 3 3 3 3 3 3 3 3 3 3 3 3 3 3 3 2 2 2 3 3 3 3 3 3 3 3
1 4 6 6 3 2 5 6 6 5 4 6 9 8 4 3 3 2 1 2 2 2 3 3 3 3 3 3 3 3 3 3 3 3 3 3 3 4 3 3 3 3 3 3
3 5 6 8 7 7 9 9 9 11 10 9 9 9 8 4 3 3 3 2 2 2 3 3 3 2 2 2 2 3 3 3 3 3 3 4 4 3 3 3 4 3 4 4
3 4 4 8 7 9 12 12 12 13 13 14 14 15 8 4 1 1 2 2 2 3 3 2 2 2 2 3 3 3 3 3 3 3 4 4 3 4 4 4 4 4 4 4
4 4 3 6 4 6 12 12 14 10 9 9 12 10 4 3 2 2 2 2 2 2 2 2 3 3 3 3 3 3 3 2 2 3 4 3 4 4 4 4 4 4 4 4
6 6 4 4 3 11 8 1 3 6 6 6 6 5 3 2 2 2 2 2 2 2 2 1 1 2 2 2 2 2 2 2 3 3 4 4 4 4 4 4 5 5 4 4
8 7 5 4 7 10 6 2 2 3 4 3 4 4 3 2 3 3 2 2 2 2 2 1 1 1 1 2 2 2 2 3 3 4 5 4 4 4 4 5 5 4 4 4
2 4 5 5 6 8 3 1 1 1 4 1 1 3 2 1 2 3 2 2 2 2 1 1 1 1 2 2 2 2 3 3 4 4 4 4 4 4 5 5 5 4 4 5
3 4 8 8 8 7 2 1 3 2 3 2 1 2 2 2 3 2 2 2 2 1 1 1 1 2 2 2 1 2 3 4 4 3 3 3 3 4 5 4 4 3 4 4
6 6 7 6 8 8 1 2 2 2 1 2 3 2 2 3 3 3 2 2 2 2 2 2 2 3 2 2 2 3 4 4 3 2 3 4 4 4 3 4 4 4 4 5
5 6 4 6 6 2 2 1 1 1 2 3 3 4 4 4 4 4 4 3 3 3 3 2 3 3 3 3 3 4 4 3 2 3 4 4 4 4 4 4 4 4 4 4
4 2 3 5 5 3 3 3 1 2 2 3 4 4 4 4 5 5 4 4 3 3 3 3 3 4 4 3 3 4 3 2 2 4 4 4 4 4 4 4 4 4 4 4
4 2 5 7 6 5 3 2 2 2 3 3 4 4 4 5 5 5 4 4 3 3 3 3 3 4 5 4 3 3 3 2 3 4 4 4 4 4 4 4 5 5 5 6
5 5 5 5 3 3 4 2 2 3 3 4 4 5 4 4 5 5 5 4 4 3 3 3 4 4 5 4 4 4 3 3 3 4 4 3 3 3 4 4 4 6 7 9
Wind_Direction
197 224 243 258 262 285 290 273 275 277 152 231 246 257 248 219 210 205 202 190 181 166 133 126 127 122 119 113 112 129 145 139 120 118 118 101 115 107 97 100 109 111 93 60
218 237 271 295 282 285 283 282 287 313 135 258 265 264 236 202 199 194 193 180 158 141 127 126 129 129 130 129 127 134 131 122 114 115 112 108 107 110 100 87 86 92 97 82
251 317 319 292 294 291 281 288 302 318 309 250 261 276 205 158 156 160 173 160 147 146 144 136 137 139 127 119 123 130 124 119 111 107 102 94 75 58 70 92 125 124 111 99
262 240 284 279 281 291 275 343 321 304 299 270 233 285 245 172 168 180 181 169 165 147 136 137 141 141 130 126 122 116 118 121 113 107 112 120 123 142 176 143 137 128 108 99
258 97 278 268 303 316 291 311 283 274 273 283 239 240 262 179 186 186 176 170 151 143 140 140 138 138 132 124 117 115 114 110 106 107 122 127 115 121 88 78 77 94 120 126
245 251 291 295 324 277 285 281 261 251 272 268 225 208 264 194 187 172 170 163 154 150 143 137 127 120 116 113 114 124 125 122 117 123 131 134 126 105 95 86 139 179 121 115
230 195 174 221 275 221 258 307 336 297 232 246 184 209 250 163 138 149 157 153 147 148 145 143 141 138 140 141 145 148 143 141 137 136 138 135 127 134 161 181 191 197 153 170
246 229 170 183 225 254 241 263 224 257 262 271 207 229 236 113 104 113 123 129 135 142 143 147 152 152 153 156 160 158 155 157 152 150 156 155 156 158 179 183 176 206 204 192
278 251 124 151 294 296 251 223 281 302 291 276 243 217 154 129 118 129 136 141 151 148 141 145 146 146 148 157 162 165 166 166 166 165 162 169 179 181 192 206 203 206 222 221
313 284 191 136 181 243 277 315 237 205 272 277 262 228 208 170 166 160 158 158 150 145 148 149 144 144 151 157 160 163 167 166 167 173 172 173 190 192 196 195 212 220 229 232
288 252 224 187 207 196 186 216 228 249 247 250 284 279 47 135 146 152 155 149 151 155 159 159 155 151 149 149 158 167 172 169 174 181 182 185 192 191 196 207 216 217 219 220
254 277 252 236 190 354 224 220 202 213 251 234 256 270 54 89 105 124 133 135 135 146 152 157 159 154 154 163 175 184 187 186 188 188 193 199 198 195 204 216 217 213 222 225
189 236 277 277 266 212 248 239 243 264 280 242 239 255 116 105 107 121 132 138 139 148 156 160 163 167 172 179 187 193 198 196 189 184 197 211 212 208 217 224 220 216 221 230
293 242 223 238 260 230 246 237 224 216 220 242 237 253 247 221 218 230 210 178 161 170 180 183 187 187 186 191 199 202 207 199 191 192 203 216 219 215 218 224 223 221 220 224
216 248 252 262 273 273 263 252 235 228 226 235 254 261 263 258 235 224 212 203 190 201 205 197 199 208 200 202 213 213 216 208 197 203 213 222 225 219 218 223 226 224 224 226
224 254 273 268 257 261 266 254 244 243 242 248 261 270 278 290 318 276 250 224 221 228 212 202 206 218 217 217 224 225 226 218 203 213 225 228 226 223 221 223 225 226 228 230
214 225 251 265 264 291 263 239 227 228 225 231 248 258 289 305 335 331 312 282 252 245 235 217 210 215 221 225 227 233 230 229 221 228 236 233 230 229 227 224 223 228 229 230
225 229 244 266 271 247 248 191 208 225 239 236 256 280 299 289 315 309 300 297 310 318 303 260 237 230 223 225 235 228 215 215 224 237 244 239 235 234 228 224 226 229 226 227
226 222 233 237 250 267 266 225 182 214 262 258 256 286 319 3 352 310 314 337 320 311 309 294 277 272 252 236 225 222 223 217 226 236 239 236 233 236 234 233 233 231 229 235
246 231 226 231 245 255 268 53 58 107 259 356 347 299 303 54 300 284 323 335 327 340 340 342 339 319 284 264 219 217 236 233 236 238 240 236 230 232 237 238 239 236 232 237
192 217 224 234 245 258 269 133 97 181 255 356 355 314 296 231 239 287 331 336 330 322 315 309 291 273 267 266 237 244 251 247 245 241 241 242 237 237 240 242 239 236 237 241
196 201 209 213 232 246 114 115 178 236 337 342 341 332 316 302 319 323 308 296 296 298 296 288 273 268 266 249 235 249 253 253 245 241 246 248 245 244 241 233 239 235 232 240
208 203 207 211 226 281 160 220 256 0 331 334 336 333 324 308 301 302 300 293 286 283 285 279 272 273 269 249 236 250 263 262 251 251 253 253 251 246 238 230 232 235 231 234
243 250 266 270 259 258 243 259 287 311 306 324 329 322 314 299 297 297 293 289 283 276 272 270 269 272 272 261 250 247 255 248 250 256 257 253 251 252 246 238 228 227 228 232
261 254 261 265 276 292 278 279 297 321 318 309 306 301 296 294 290 289 290 286 281 280 274 266 260 263 269 270 264 258 250 241 253 258 258 258 253 250 248 243 234 232 231 227
243 239 241 256 274 276 285 311 324 310 300 300 300 300 295 283 284 287 283 280 278 278 276 277 273 268 270 269 267 261 247 236 247 261 260 256 255 255 252 255 267 251 246 254